This is the latest recevied weather packets stored in our database for station/object KJ5FA-10. If no packets are shown the sender has not sent any weather packets the latest 10 day(s).
| Time | Temp. | Humidity | Pressure | Rain* | Wind** | Luminosity | Snow |
|---|---|---|---|---|---|---|---|
| 1788049485 | 30° C | 44% | 1016.9 hPa | 0 mm | - | - | - |
| 1788043184 | 33.33° C | 34% | 1017 hPa | 0 mm | - | - | - |
| 1788042284 | 33.89° C | 32% | 1016.8 hPa | 0 mm | - | - | - |
| 1788041384 | 34.44° C | 32% | 1017 hPa | 0 mm | - | - | - |
| 1788038684 | 35° C | 30% | 1017.1 hPa | 0 mm | - | - | - |
| 1788035984 | 33.89° C | 32% | 1017.6 hPa | 0 mm | - | - | - |
| 1788034184 | 33.89° C | 32% | 1017.9 hPa | 0 mm | - | - | - |
| 1788032385 | 33.33° C | 33% | 1018.3 hPa | 0 mm | - | - | - |
| 1788030585 | 34.44° C | 33% | 1018.6 hPa | 0 mm | - | - | - |
| 1788026085 | 33.33° C | 36% | 1019.5 hPa | 0 mm | - | - | - |
| 1788025184 | 33.33° C | 36% | 1019.8 hPa | 0 mm | - | - | - |
| 1788024284 | 32.78° C | 37% | 1020.2 hPa | 0 mm | - | - | - |
| 1788023384 | 32.78° C | 38% | 1020.4 hPa | 0 mm | - | - | - |
| 1788022484 | 32.22° C | 39% | 1020.7 hPa | 0 mm | - | - | - |
| 1788019784 | 30.56° C | 47% | 1021.1 hPa | 0 mm | - | - | - |
| 1788013484 | 25° C | 70% | 1020.9 hPa | 0 mm | - | - | - |
| 1788011684 | 23.33° C | 76% | 1021.2 hPa | 0 mm | - | - | - |
| 1788010784 | 22.22° C | 79% | 1021.1 hPa | 0 mm | - | - | - |
| 1788009884 | 21.67° C | 84% | 1021.5 hPa | 0 mm | - | - | - |
| 1788008083 | 20.56° C | 87% | 1021.2 hPa | 0 mm | - | - | - |
| 1788007183 | 20° C | 91% | 1020.9 hPa | 0 mm | - | - | - |
| 1788005383 | 19.44° C | 92% | 1020.9 hPa | 0 mm | - | - | - |
| 1788004483 | 19.44° C | 92% | 1020.8 hPa | 0 mm | - | - | - |
| 1788003583 | 19.44° C | 93% | 1020.7 hPa | 0 mm | - | - | - |
| 1788002684 | 19.44° C | 94% | 1020.6 hPa | 0 mm | - | - | - |
* Rain latest hour (hover to see other rain measurements)
** Current wind speed in m/s (hover to see current wind gust speed)